TITAN 3C TRANSTAGE DEB, 43515

Orbit data source: Space-Track

TITAN 3C TRANSTAGE DEB, 43515 is space debris in GEO originally from a launch on Sun, 09 Feb 1969 UTC launched from the Air Force Eastern Test Range (AFETR). Debris objects in space refer to the collection of defunct objects orbiting the Earth. Examples of debris include non-operational satellites, rocket bodies, and fragments generated from explosions, collisions, or faulty payload assembly.

Loading next visibility...
Identifier
43515, 1969-013T
Orbit
GEO
Country
Flag of USUS
Related business
Manufacturer
Martin Marietta
Mission
Spacecraft
Bus & Motor
Unknown
Mass
Unknown
Launch date (UTC)
1969-02-09 (57 years ago)
Launch vehicle
Unknown
Launch site
Air Force Eastern Test Range (AFETR)
Object type
Payload
Rocket body
Debris
Shape & HBR
Unknown shape, 1.1 m
Radar Cross Section
RCS unknown

Expand to show TLE details & history
Last TLE update: 23 hours ago

TLE from 23 hours ago
0 TITAN 3C TRANSTAGE DEB
1 43515U 69013T   25291.39073011 -.00000125  00000-0  00000-0 0  9999
2 43515   1.2545  49.0426 0324168 152.7459 209.2790  0.95444136 25911
Epoch: 2025-10-18T09:22Z
TLE epoch observation values (Epoch: 2025-10-18T09:22:39.081Z)
Latitude
-0°
Longitude
-118.50214°
Altitude
38,445.627 km
Speed
2.939 km/s
True Right ascension
03h 17m 07s
True Declination
0° 00' 00"
Sunlit
Object was in daylight at epoch
Visualization orbit readout
Latitude
Unknown
Longitude
Unknown
Altitude
Unknown
Speed
Unknown
Apparent Right ascension
Unknown
Apparent Declination
Unknown
Sunlit
N/A
Visualization observer readout
Local Sidereal Time
02:56:48
Azimuth
Unknown
Elevation
Unknown
Doppler factor
Unknown
Orbital elements
Apogee altitude
38,610.319 km
Perigee altitude
35,785.138 km
Semi-major axis
43,575.866 km
Eccentricity
0.03242
Inclination
1.2545°
RAAN
49.0426°
Arg. of periapsis
152.7459°
True anomaly
207.52465°
Mean anomaly
209.279°
Eccentric anomaly
208.39572°
Mean motion
0.2386 °/min
Orbital period
1,508.79 mins
BSTAR
0
Loading maneuver chart data...
Computing Atmospheric mass density...

Documentation

Showing up to 5 results
|